Terug naar catalogus

STARLINK-4299

ActiefCommunicatieVLEO
NORAD 53172·PAYLOAD·🇺🇸 United States

Gelanceerd Jul 17, 2022 vanaf Cape Canaveral Space Force Station

Loading…

Volgende Passages (komende 24 uur)

TLE

VersSource: CelesTrak SupGP

Epoch: Sep 14, 2026, 21:40 UTC

1 53172C 22083AS  26257.90326389 -.00011353  00000+0 -36513-3 0  2577
2 53172  53.1592  18.6581 0001224  81.7884 251.6944 15.31705241    10

Volg STARLINK-4299 in realtime met AllMySat

Download on the App Store